Location: ??????
(38.0677°N, 22.9870°E)
Time: 17:48:51
(UTC+00:00)

YAOGAN 6 - Pass Details

Date: 23 May 2024
Orbit: 408 x 434 km, 97.2° (Epoch: 23 June)

Event Time Altitude Azimuth Distance (km) Brightness Sun altitude
Rises 02:40:46 0° 359° (N) 2,429 6.6 -6.1°
Reaches altitude 10° 02:42:59 10° 348° (NNW) 1,551 5.4 -5.7°
Maximum altitude 02:45:51 28° 288° (WNW) 853 3.5 -5.2°
Drops below altitude 10° 02:48:42 10° 227° (SW) 1,527 4.4 -4.7°
Enters shadow 02:49:53 - 219° (SW) 1,986 5.1 -4.5°
